EW7349 Weather Reports


time (UTC)temp
C
wind
direction
speed
KPH
gust
KPH
rain 1hr
cm
rain 24hr
cm
rain mn
cm
humidity
%
barometer
mb
20260903184011 29 232 1.6 6.4 0.00 0.28 0.00 77 1016.1
20260903183513 30 317 1.6 6.4 0.00 0.28 0.00 76 1016.0
20260903183013 29 227 1.6 6.4 0.00 0.28 0.00 77 1016.1
20260903182733 29 283 1.6 6.4 0.00 0.28 0.00 77 1016.2
20260903182235 29 263 1.6 6.4 0.00 0.28 0.00 78 1016.3
20260903181506 28 311 0.0 4.8 0.00 0.28 0.00 80 1015.9
20260903181219 29 119 0.0 4.8 0.00 0.28 0.00 79 1015.8
20260903180453 28 250 0.0 3.2 0.00 0.28 0.00 76 1016.1
20260903175948 28 248 1.6 3.2 0.00 0.28 0.00 77 1016.4
20260903175441 28 69 0.0 3.2 0.00 0.28 0.00 78 1016.5
20260903174934 29 296 0.0 3.2 0.00 0.28 0.00 76 1016.8
20260903174427 28 298 1.6 3.2 0.00 0.28 0.00 78 1016.8
20260903173921 28 298 1.6 3.2 0.00 0.28 0.00 76 1016.8
20260903173415 29 10 1.6 3.2 0.00 0.28 0.00 77 1016.8
20260903172909 29 274 1.6 4.8 0.00 0.28 0.00 74 1016.9
20260903171858 29 320 1.6 8.0 0.00 0.28 0.00 76 1017.2
20260903171351 29 295 1.6 8.0 0.00 0.28 0.00 76 1017.3
20260903170845 29 319 1.6 6.4 0.00 0.28 0.00 76 1017.5
20260903170339 30 320 1.6 4.8 0.00 0.28 0.00 75 1017.6
20260903170057 29 109 3.2 11.3 0.00 0.28 0.00 76 1017.6
20260903165549 29 299 3.2 11.3 0.00 0.28 0.00 73 1017.6
20260903164821 29 278 1.6 12.9 0.00 0.28 0.00 77 1017.7
20260903164315 30 267 1.6 12.9 0.00 0.28 0.00 76 1017.7
20260903163809 29 64 1.6 6.4 0.00 0.28 0.00 77 1018.0
20260903163303 28 67 1.6 8.0 0.00 0.28 0.00 78 1017.8
20260903163020 29 40 0.0 8.0 0.00 0.28 0.00 77 1017.8
20260903162251 28 36 0.0 3.2 0.00 0.28 0.00 79 1017.8
20260903161746 28 340 0.0 3.2 0.00 0.28 0.00 77 1017.8
20260903161240 28 270 0.0 4.8 0.00 0.28 0.00 77 1017.6
20260903160733 28 321 1.6 6.4 0.00 0.28 0.00 78 1017.6
20260903160228 28 313 0.0 6.4 0.00 0.28 0.00 80 1017.5
20260903155922 27 252 0.0 1.6 0.00 0.28 0.00 83 1017.8
20260903155809 28 321 0.0 1.6 0.00 0.28 0.00 81 1017.7
20260903154709 27 322 0.0 3.2 0.00 0.28 0.00 83 1017.8
20260903154203 27 270 0.0 3.2 0.00 0.28 0.00 82 1017.9
20260903153657 27 270 0.0 3.2 0.00 0.28 0.00 83 1017.8
20260903153157 27 269 0.0 3.2 0.00 0.28 0.00 84 1017.8
20260903152657 26 227 0.0 4.8 0.00 0.28 0.00 87 1017.9
20260903152158 26 247 0.0 4.8 0.00 0.28 0.00 86 1018.0
20260903151918 26 236 0.0 1.6 0.00 0.28 0.00 86 1017.9
20260903151158 26 252 0.0 3.2 0.00 0.28 0.00 87 1017.9
20260903150659 26 238 1.6 4.8 0.00 0.28 0.00 86 1018.0
20260903150155 26 313 1.6 4.8 0.00 0.28 0.00 85 1018.0
20260903145656 26 71 1.6 3.2 0.00 0.28 0.00 86 1017.9
20260903145157 25 153 0.0 3.2 0.00 0.28 0.00 89 1017.8
20260903145136 25 245 0.0 3.2 0.00 0.28 0.00 88 1017.8
20260903144642 25 146 0.0 3.2 0.00 0.28 0.00 90 1017.7
20260903143656 25 71 0.0 1.6 0.00 0.28 0.00 90 1017.5
20260903143157 25 70 0.0 1.6 0.00 0.28 0.00 91 1017.6
20260903142655 24 71 0.0 1.6 0.00 0.28 0.00 92 1017.5
20260903142155 24 71 0.0 1.6 0.00 0.28 0.00 93 1017.6
20260903141653 24 71 0.0 3.2 0.00 0.28 0.00 93 1017.6
20260903141154 24 70 0.0 3.2 0.00 0.28 0.00 93 1017.5
20260903140912 24 71 0.0 3.2 0.00 0.28 0.00 94 1017.5
20260903140142 24 5 0.0 3.2 0.00 0.28 0.00 94 1017.4
20260903135636 23 5 0.0 3.2 0.00 0.28 0.00 94 1017.7
20260903135130 23 66 0.0 3.2 0.00 0.28 0.00 95 1017.8
20260903134624 23 55 0.0 1.6 0.00 0.28 0.00 96 1017.8
20260903134338 23 106 0.0 1.6 0.00 0.28 0.00 96 1017.6
20260903133612 23 106 0.0 1.6 0.00 0.28 0.00 96 1017.6
20260903133106 23 70 0.0 1.6 0.00 0.28 0.00 96 1017.7
20260903132600 23 54 0.0 3.2 0.00 0.28 0.00 96 1017.8
20260903132313 23 49 0.0 3.2 0.00 0.28 0.00 96 1017.8
20260903131548 23 57 0.0 1.6 0.00 0.28 0.00 96 1018.0
20260903131043 23 27 1.6 6.4 0.00 0.28 0.00 96 1018.2
20260903130536 23 91 1.6 6.4 0.00 0.28 0.00 96 1018.2
20260903130029 22 85 1.6 4.8 0.00 0.28 0.00 96 1018.3
20260903125524 22 107 1.6 11.3 0.00 0.28 0.00 96 1018.3
20260903125018 22 67 1.6 11.3 0.00 0.28 0.00 96 1018.3
20260903124514 22 61 1.6 4.8 0.00 0.28 0.00 96 1018.4
20260903124013 22 82 0.0 4.8 0.00 0.28 0.00 96 1018.5
20260903123735 22 75 1.6 4.8 0.00 0.28 0.00 96 1018.6
20260903123012 22 67 1.6 4.8 0.00 0.28 0.00 96 1018.5
20260903122509 22 93 1.6 4.8 0.00 0.28 0.00 96 1018.4
20260903122009 22 63 1.6 9.7 0.00 0.28 0.00 96 1018.4
20260903121507 22 59 1.6 9.7 0.00 0.28 0.00 96 1018.5
20260903121007 22 87 1.6 9.7 0.00 0.28 0.00 96 1018.6
20260903120728 22 170 3.2 9.7 0.00 0.28 0.00 96 1018.5
20260903120004 22 96 1.6 8.0 0.00 0.28 0.00 96 1018.5
20260903115506 22 103 1.6 8.0 0.00 0.28 0.00 96 1018.3
20260903115225 22 71 1.6 6.4 0.00 0.28 0.00 96 1018.2
20260903114504 22 87 0.0 1.6 0.00 0.28 0.00 96 1017.8
20260903114006 22 95 1.6 4.8 0.00 0.28 0.00 96 1017.6
20260903113506 22 95 1.6 4.8 0.00 0.28 0.00 96 1017.7
20260903113001 22 313 0.0 3.2 0.00 0.28 0.00 96 1017.9
20260903112503 22 192 0.0 1.6 0.00 0.28 0.00 96 1017.4
20260903112003 22 192 0.0 0.0 0.00 0.28 0.00 96 1017.3
20260903111501 22 192 0.0 0.0 0.00 0.28 0.00 96 1017.3
20260903111002 22 192 0.0 0.0 0.00 0.28 0.00 96 1017.2
20260903110502 22 192 0.0 0.0 0.00 0.28 0.00 96 1017.1
20260903110002 22 192 0.0 0.0 0.00 0.28 0.00 96 1017.0
20260903105500 22 192 0.0 0.0 0.00 0.28 0.00 96 1016.8
20260903105002 22 192 0.0 0.0 0.00 0.28 0.00 96 1016.7
20260903104500 22 192 0.0 0.0 0.00 0.28 0.00 96 1016.7
20260903104001 22 192 0.0 0.0 0.00 0.28 0.00 96 1016.6
20260903103724 22 192 0.0 0.0 0.00 0.28 0.00 96 1016.4
20260903103003 22 192 0.0 1.6 0.00 0.28 0.00 96 1016.4
20260903102500 22 192 0.0 1.6 0.00 0.28 0.00 96 1016.4
20260903102220 22 192 0.0 1.6 0.00 0.28 0.00 96 1016.4
20260903101502 22 192 0.0 1.6 0.00 0.28 0.00 96 1016.4
20260903100959 22 192 0.0 1.6 0.00 0.28 0.00 96 1016.4
20260903100722 22 192 0.0 0.0 0.00 0.28 0.00 96 1016.4
20260903095953 22 192 0.0 0.0 0.00 0.28 0.00 96 1016.5
20260903095455 22 192 0.0 0.0 0.00 0.28 0.00 96 1016.5
20260903094955 22 192 0.0 1.6 0.00 0.28 0.00 96 1016.5
20260903094450 22 192 0.0 1.6 0.00 0.28 0.00 96 1016.6
20260903093947 22 192 0.0 1.6 0.00 0.28 0.00 96 1016.6
20260903093445 22 192 0.0 1.6 0.00 0.28 0.00 96 1016.6
20260903092946 22 192 0.0 1.6 0.00 0.28 0.00 96 1016.7
20260903092444 22 172 0.0 0.0 0.00 0.28 0.00 96 1016.7
20260903091944 22 172 0.0 0.0 0.00 0.28 0.00 96 1016.7
20260903091442 22 172 0.0 0.0 0.00 0.28 0.00 95 1016.7
20260903090941 22 172 0.0 1.6 0.00 0.28 0.00 95 1016.7
20260903090442 22 172 0.0 1.6 0.00 0.28 0.00 96 1016.6
20260903085942 22 172 0.0 1.6 0.00 0.28 0.00 95 1016.6
20260903085438 22 172 0.0 1.6 0.00 0.28 0.00 96 1016.6
20260903084938 22 172 0.0 3.2 0.00 0.28 0.00 96 1016.6
20260903084436 22 172 0.0 3.2 0.00 0.28 0.00 96 1016.6
20260903084412 22 172 0.0 1.6 0.00 0.28 0.00 95 1016.7
20260903083430 22 172 0.0 1.6 0.00 0.28 0.00 95 1016.7
20260903083159 22 172 0.0 1.6 0.00 0.28 0.00 95 1016.6
20260903082426 22 172 0.0 3.2 0.00 0.28 0.00 95 1016.5
20260903081924 22 188 0.0 3.2 0.00 0.28 0.00 95 1016.5
20260903081426 22 188 0.0 0.0 0.00 0.28 0.00 95 1016.5
20260903080918 22 188 0.0 0.0 0.00 0.28 0.00 95 1016.4
20260903080640 22 188 0.0 1.6 0.00 0.28 0.00 95 1016.5
20260903075905 22 188 0.0 3.2 0.00 0.28 0.00 95 1016.5
20260903075618 22 188 0.0 3.2 0.00 0.28 0.00 95 1016.3
20260903075113 22 188 0.0 1.6 0.00 0.28 0.00 95 1016.2
20260903074346 22 188 0.0 1.6 0.00 0.28 0.00 95 1016.2
20260903073840 22 188 0.0 1.6 0.00 0.28 0.00 95 1016.2
20260903073333 22 188 0.0 1.6 0.00 0.28 0.00 95 1016.2
20260903072827 22 188 0.0 1.6 0.00 0.28 0.00 95 1016.1
20260903072321 22 188 0.0 1.6 0.00 0.28 0.00 95 1016.2
20260903071815 22 188 0.0 1.6 0.00 0.28 0.00 95 1016.2
20260903071309 22 188 0.0 1.6 0.00 0.28 0.00 95 1016.1
20260903070803 22 188 0.0 1.6 0.00 0.28 0.00 95 1016.2
20260903070515 22 185 0.0 1.6 0.00 0.28 0.00 95 1016.2
20260903065751 22 156 0.0 3.2 0.00 0.28 0.00 95 1016.1
20260903065505 22 156 0.0 3.2 0.00 0.28 0.00 95 1016.2
20260903064740 22 148 0.0 1.6 0.00 0.28 0.00 95 1016.3
20260903064723 22 148 0.0 1.6 0.00 0.28 0.00 95 1016.3
20260903063727 22 148 0.0 1.6 0.00 0.28 0.00 95 1016.4
20260903063221 22 148 0.0 1.6 0.00 0.28 0.00 95 1016.5
20260903062715 22 148 0.0 1.6 0.00 0.28 0.00 95 1016.4
20260903062437 22 148 0.0 1.6 0.00 0.28 0.00 95 1016.6
20260903062147 22 148 0.0 1.6 0.00 0.28 0.00 95 1016.5
20260903061157 22 148 0.0 1.6 0.00 0.28 0.00 95 1016.6
20260903060651 22 148 0.0 1.6 0.00 0.28 0.00 95 1016.8
20260903060145 22 148 0.0 1.6 0.00 0.28 0.00 95 1016.8
20260903055900 22 148 0.0 3.2 0.00 0.28 0.00 95 1016.9
20260903055133 22 148 1.6 3.2 0.00 0.28 0.00 95 1017.0
20260903054627 22 148 1.6 3.2 0.00 0.28 0.00 95 1017.0
20260903054121 22 148 1.6 4.8 0.00 0.28 0.00 94 1017.0
20260903053615 22 139 1.6 4.8 0.00 0.28 0.00 95 1017.1
20260903053109 22 153 0.0 4.8 0.00 0.28 0.00 94 1017.2
20260903052832 22 77 0.0 1.6 0.00 0.28 0.00 94 1017.3
20260903052058 22 77 0.0 1.6 0.00 0.28 0.00 94 1017.3
20260903052035 22 77 0.0 1.6 0.00 0.28 0.00 94 1017.2
20260903051045 22 77 0.0 1.6 0.00 0.28 0.00 94 1017.2
20260903050542 22 77 0.0 0.0 0.00 0.28 0.00 94 1017.1
20260903050033 22 77 0.0 0.0 0.00 0.28 0.00 94 1017.1
20260903045753 22 77 0.0 0.0 0.00 0.28 0.00 94 1017.2
20260903045020 22 77 0.0 1.6 0.00 0.28 0.00 94 1017.3
20260903044514 22 77 0.0 1.6 0.00 0.28 0.00 94 1017.2
20260903044009 22 77 0.0 0.0 0.00 0.28 0.00 94 1017.2
20260903043723 22 77 0.0 1.6 0.00 0.28 0.00 94 1017.1
20260903042958 22 77 0.0 1.6 0.00 0.28 0.00 94 1017.2
20260903042712 22 77 0.0 0.0 0.00 0.28 0.00 94 1017.2
20260903042209 22 77 0.0 1.6 0.00 0.28 0.00 93 1017.2
20260903041439 22 77 0.0 1.6 0.00 0.28 0.00 93 1017.3
20260903040933 22 77 0.0 0.0 0.00 0.28 0.00 93 1017.3
20260903040427 22 77 0.0 1.6 0.00 0.28 0.00 93 1017.4
20260903035921 22 77 0.0 1.6 0.00 0.28 0.28 93 1017.4
20260903035415 22 77 0.0 1.6 0.00 0.28 0.28 93 1017.3
20260903035401 22 77 0.0 1.6 0.00 0.28 0.28 93 1017.4
20260903034402 22 10 0.0 1.6 0.00 0.28 0.28 93 1017.3
20260903033857 22 10 0.0 1.6 0.00 0.28 0.28 93 1017.3
20260903033614 22 10 0.0 0.0 0.00 0.28 0.28 93 1017.2
20260903032845 22 10 0.0 0.0 0.00 0.28 0.28 93 1017.1
20260903032339 22 10 0.0 0.0 0.00 0.28 0.28 93 1017.1
20260903031833 22 10 0.0 0.0 0.00 0.28 0.28 93 1017.2
20260903031327 22 10 0.0 0.0 0.00 0.28 0.28 93 1017.1
20260903031047 22 10 0.0 0.0 0.00 0.28 0.28 93 1017.0
20260903030534 22 10 0.0 0.0 0.00 0.28 0.28 93 1017.0
20260903025809 22 10 0.0 0.0 0.00 0.28 0.28 93 1016.9
20260903025527 22 10 0.0 0.0 0.00 0.28 0.28 93 1016.9
20260903024959 22 10 0.0 0.0 0.00 0.28 0.28 93 1016.9
20260903024841 22 10 0.0 0.0 0.00 0.28 0.28 93 1016.9
20260903023745 22 10 0.0 0.0 0.00 0.28 0.28 93 1016.9
20260903023239 22 10 0.0 0.0 0.00 0.28 0.28 93 1016.8
20260903023214 22 10 0.0 0.0 0.00 0.28 0.28 93 1016.8
20260903022227 23 10 0.0 0.0 0.00 0.28 0.28 93 1016.8
20260903021721 23 10 0.0 0.0 0.00 0.28 0.28 93 1016.9
20260903021448 23 10 0.0 0.0 0.00 0.28 0.28 93 1016.9
20260903020930 23 10 0.0 1.6 0.00 0.28 0.28 93 1016.9
20260903020203 23 10 0.0 1.6 0.00 0.28 0.28 93 1016.9
20260903015657 23 10 0.0 0.0 0.00 0.28 0.28 93 1017.1
20260903015157 23 10 0.0 0.0 0.00 0.28 0.28 93 1017.2
20260903014654 23 10 0.0 0.0 0.00 0.28 0.28 93 1017.2
20260903014154 23 10 0.0 0.0 0.00 0.28 0.28 93 1017.3
20260903013652 23 10 0.0 0.0 0.00 0.28 0.28 93 1017.3
20260903013149 23 10 0.0 0.0 0.00 0.28 0.28 93 1017.3
20260903012647 23 10 0.0 0.0 0.00 0.28 0.28 93 1017.3
20260903012147 23 10 0.0 0.0 0.00 0.28 0.28 93 1017.3
20260903011647 23 10 0.0 0.0 0.00 0.28 0.28 93 1017.4
20260903011411 23 10 0.0 1.6 0.00 0.28 0.28 93 1017.5
20260903010647 23 10 0.0 1.6 0.00 0.28 0.28 93 1017.3
20260903010147 23 346 0.0 1.6 0.00 0.28 0.28 93 1017.1
20260903005647 23 346 0.0 1.6 0.00 0.28 0.28 93 1017.3
20260903005145 23 59 0.0 3.2 0.00 0.28 0.28 93 1017.5
20260903004644 23 33 0.0 3.2 0.00 0.28 0.28 93 1017.5
20260903004357 24 86 0.0 0.0 0.00 0.28 0.28 93 1017.5
20260903003640 24 86 0.0 0.0 0.00 0.28 0.28 93 1017.5
20260903003139 24 86 0.0 0.0 0.00 0.28 0.28 93 1017.6
20260903002638 24 86 0.0 0.0 0.00 0.28 0.28 93 1017.7
20260903002136 24 86 0.0 0.0 0.00 0.28 0.28 93 1017.6
20260903001637 24 86 0.0 0.0 0.00 0.28 0.28 93 1017.5
20260903001132 24 86 0.0 0.0 0.00 0.28 0.28 93 1017.5
20260903000626 24 86 0.0 0.0 0.00 0.28 0.28 93 1017.6
20260903000125 24 86 0.0 0.0 0.00 0.28 0.28 92 1017.5
20260902235625 24 86 0.0 0.0 0.00 0.28 0.28 93 1017.5
20260902235124 24 86 0.0 0.0 0.00 0.28 0.28 92 1017.5
20260902234626 24 86 0.0 0.0 0.00 0.28 0.28 92 1017.6
20260902234123 24 86 0.0 0.0 0.00 0.28 0.28 92 1017.6
20260902233621 24 86 0.0 0.0 0.00 0.28 0.28 92 1017.5
20260902233118 24 86 0.0 0.0 0.00 0.28 0.28 93 1017.3
20260902232618 24 86 0.0 0.0 0.00 0.28 0.28 93 1017.1
20260902232333 24 86 0.0 0.0 0.00 0.28 0.28 93 1017.4
20260902231617 25 86 0.0 0.0 0.00 0.28 0.28 93 1017.6
20260902231116 25 86 0.0 0.0 0.00 0.28 0.28 93 1017.4
20260902230617 25 86 0.0 0.0 0.00 0.28 0.28 93 1017.8
20260902230550 25 86 0.0 0.0 0.00 0.28 0.28 93 1018.1
20260902225612 25 86 0.0 0.0 0.00 0.28 0.28 93 1018.0
20260902225602 25 86 0.0 0.0 0.00 0.28 0.28 93 1017.7
20260902224613 25 86 0.0 0.0 0.00 0.28 0.28 94 1017.8
20260902224111 25 86 0.0 0.0 0.00 0.28 0.28 94 1018.0
20260902223830 25 86 0.0 0.0 0.00 0.28 0.28 94 1017.9
20260902223117 25 86 0.0 0.0 0.00 0.28 0.28 94 1017.8
20260902222842 25 86 0.0 0.0 0.00 0.28 0.28 93 1018.0
20260902222113 24 86 0.0 1.6 0.00 0.28 0.28 93 1017.7
20260902222048 25 86 0.0 1.6 0.00 0.28 0.28 93 1017.6
20260902221335 25 86 0.0 1.6 0.00 0.28 0.28 91 1017.7
20260902220614 25 86 0.0 1.6 0.00 0.28 0.28 91 1017.5
20260902220113 25 86 0.0 1.6 0.00 0.28 0.28 91 1017.2
20260902215613 25 86 0.0 1.6 0.00 0.28 0.28 91 1017.2
20260902215115 25 86 0.0 0.0 0.00 0.28 0.28 90 1017.3
20260902214611 25 86 0.0 0.0 0.00 0.28 0.28 90 1017.5
20260902214109 25 86 0.0 0.0 0.00 0.28 0.28 90 1017.6
20260902213606 25 86 0.0 0.0 0.00 0.28 0.28 90 1017.6
20260902213107 25 86 0.0 0.0 0.00 0.28 0.28 90 1017.8
20260902212606 25 86 0.0 1.6 0.00 0.28 0.28 89 1017.7
20260902212100 25 86 0.0 1.6 0.00 0.28 0.28 89 1017.8
20260902211552 25 86 0.0 3.2 0.03 0.28 0.28 89 1017.8
20260902211053 25 86 0.0 3.2 0.03 0.28 0.28 89 1018.0
20260902210550 25 86 0.0 1.6 0.03 0.28 0.28 88 1017.9
20260902210049 26 86 0.0 1.6 0.03 0.28 0.28 88 1018.1
20260902205546 26 86 0.0 1.6 0.08 0.28 0.28 88 1018.4
20260902205043 26 41 0.0 1.6 0.10 0.28 0.28 88 1018.4
20260902204544 26 92 0.0 1.6 0.13 0.28 0.28 87 1018.2
20260902204041 26 325 0.0 0.0 0.15 0.28 0.28 87 1018.3
20260902203805 26 325 0.0 0.0 0.23 0.28 0.28 86 1018.2
20260902203038 26 325 0.0 1.6 0.28 0.28 0.28 85 1017.8
20260902202535 27 49 0.0 1.6 0.28 0.28 0.28 85 1017.4
20260902202033 27 49 0.0 1.6 0.28 0.28 0.28 83 1017.4
20260902201755 27 337 0.0 1.6 0.25 0.25 0.25 82 1017.8
20260902201027 28 337 0.0 4.8 0.25 0.25 0.25 81 1017.7
20260902200525 28 23 1.6 4.8 0.25 0.25 0.25 80 1018.1
20260902200242 28 103 0.0 1.6 0.25 0.25 0.25 77 1018.2
20260902195524 29 103 1.6 4.8 0.20 0.20 0.23 76 1018.3
20260902195021 30 105 1.6 9.7 0.18 0.18 0.18 74 1018.4
20260902194517 30 98 1.6 9.7 0.15 0.15 0.15 73 1018.8
20260902194017 31 37 1.6 3.2 0.13 0.13 0.13 76 1019.0
20260902193517 31 64 0.0 3.2 0.05 0.05 0.08 72 1018.4
20260902193236 31 144 1.6 6.4 0.00 0.00 0.00 66 1018.1
20260902192512 31 144 3.2 11.3 0.00 0.00 0.00 62 1018.3
20260902192012 33 159 4.8 11.3 0.00 0.00 0.00 58 1018.3
20260902191506 34 317 4.8 9.7 0.00 0.00 0.00 60 1017.9
20260902191000 34 155 3.2 9.7 0.00 0.00 0.00 60 1017.5
20260902190454 34 146 3.2 8.0 0.00 0.00 0.00 60 1017.2
20260902190436 33 121 3.2 6.4 0.00 0.00 0.00 63 1017.2
20260902185442 33 153 3.2 6.4 0.00 0.00 0.00 63 1017.3
20260902184936 32 142 3.2 6.4 0.00 0.00 0.00 63 1017.5